Weather History for Jacksonville Craig, FL

Change the Weather History Date:

Saturday, October 12, 2013

  Actual Average Record
Temperature  
Mean Temperature 73 °F -  
Max Temperature 86 °F 78 °F 88 °F (2006)
Min Temperature 62 °F 63 °F 51 °F (2000)
Cooling Degree Days 8    
Growing Degree Days 23 (Base 50)    
Moisture  
Dew Point 60 °F    
Average Humidity 69    
Maximum Humidity 90    
Minimum Humidity 36    
Precipitation  
Precipitation 0.00 in - - ()
Sea Level Pressure  
Sea Level Pressure 30.01 in    
Wind  
Wind Speed 2 mph (NNW)    
Max Wind Speed 8 mph    
Max Gust Speed -    
Visibility 10 miles    
Events      
Averages and records for this station are not official NWS values.
T = Trace of Precipitation, MM = Missing Value Source: NWS Daily Summary

Daily Weather History Graph

Daily Weather History Graph

Search for Another Location

Airport:

Trip Planner

Search our weather history database for the weather conditions in past years. The results will help you decide how hot, cold, wet, or windy it might be!

Date:

Astronomy

Oct. 12, 2013 Rise Set
Actual Time 7:26 AM EDT 6:58 PM EDT
Civil Twilight 7:02 AM EDT 7:22 PM EDT
Nautical Twilight 6:34 AM EDT 7:50 PM EDT
Astronomical Twilight 6:06 AM EDT 8:17 PM EDT
Moon 2:42 PM EDT (10/12) 12:54 AM EDT (10/12)
Length of Visible Light 12h 19m
Length of Day
11h 31m
First Quarter, 58% of the Moon is Illuminated
Oct 12
First Quarter
Oct 18
Full
Oct 26
Last Quarter
Nov 3
New
Nov 10
First Quarter

Hourly Weather History & Observations

Time (EDT) Temp. Heat Index Dew Point Humidity Pressure Visibility Wind Dir Wind Speed Gust Speed Precip Events Conditions
12:53 AM 66.0 °F - 62.1 °F 87% 29.99 in 10.0 mi Calm Calm - N/A   Partly Cloudy
1:53 AM 66.0 °F - 62.1 °F 87% 29.99 in 10.0 mi Calm Calm - N/A   Mostly Cloudy
2:53 AM 64.9 °F - 61.0 °F 87% 29.98 in 10.0 mi Calm Calm - N/A   Partly Cloudy
3:53 AM 64.9 °F - 61.0 °F 87% 29.98 in 10.0 mi Calm Calm - N/A   Scattered Clouds
4:53 AM 64.0 °F - 60.1 °F 87% 29.98 in 10.0 mi Calm Calm - N/A   Mostly Cloudy
5:53 AM 63.0 °F - 60.1 °F 90% 29.99 in 10.0 mi Calm Calm - N/A   Clear
6:53 AM 62.1 °F - 59.0 °F 90% 30.01 in 5.0 mi NW 3.5 mph - N/A   Clear
7:53 AM 63.0 °F - 59.0 °F 87% 30.02 in 10.0 mi Calm Calm - N/A   Clear
8:53 AM 70.0 °F - 62.1 °F 76% 30.04 in 10.0 mi Calm Calm - N/A   Clear
9:53 AM 73.9 °F - 62.1 °F 66% 30.05 in 10.0 mi NW 4.6 mph - N/A   Clear
10:53 AM 78.1 °F - 61.0 °F 56% 30.05 in 10.0 mi North 3.5 mph - N/A   Clear
11:53 AM 82.0 °F 82.0 °F 57.9 °F 44% 30.04 in 10.0 mi NNW 5.8 mph - N/A   Clear
12:53 PM 84.0 °F 83.0 °F 55.9 °F 38% 30.03 in 10.0 mi North 8.1 mph - N/A   Partly Cloudy
1:53 PM 82.9 °F 82.4 °F 57.0 °F 41% 30.01 in 10.0 mi NNW 8.1 mph - N/A   Scattered Clouds
2:53 PM 82.9 °F 82.4 °F 57.0 °F 41% 29.99 in 10.0 mi NNW 8.1 mph - N/A   Partly Cloudy
3:53 PM 84.9 °F 83.6 °F 55.0 °F 36% 29.98 in 10.0 mi North 5.8 mph - N/A   Clear
4:53 PM 84.0 °F 83.3 °F 57.0 °F 40% 29.98 in 10.0 mi NNW 5.8 mph - N/A   Clear
5:53 PM 84.0 °F 83.3 °F 57.0 °F 40% 29.99 in 10.0 mi NNW 6.9 mph - N/A   Clear
6:53 PM 77.0 °F - 63.0 °F 62% 30.01 in 10.0 mi ESE 3.5 mph - N/A   Clear
7:53 PM 73.0 °F - 63.0 °F 71% 30.02 in 10.0 mi Calm Calm - N/A   Clear
8:53 PM 70.0 °F - 64.0 °F 81% 30.03 in 10.0 mi Calm Calm - N/A   Clear
9:53 PM 68.0 °F - 63.0 °F 84% 30.05 in 10.0 mi Calm Calm - N/A   Clear
10:53 PM 66.9 °F - 62.1 °F 84% 30.06 in 10.0 mi Calm Calm - N/A   Clear
11:53 PM 66.9 °F - 62.1 °F 84% 30.05 in 10.0 mi Calm Calm - N/A   Clear